Evenes, Norway

2:25 PM CET on January 19, 2018 (GMT +0100)
Evenes

Weather History for ENEV - January, 2018

Change the Weather History Date:

Monday, January 1, 2018

  Actual Average Record
Temperature  
Mean Temperature 22 °F -  
Max Temperature 31 °F 27 °F 46 °F (2016)
Min Temperature 12 °F 18 °F -2 °F (2003)
Degree Days  
Heating Degree Days 44    
Moisture  
Dew Point 15 °F    
Average Humidity 67    
Maximum Humidity 86    
Minimum Humidity 52    
Precipitation  
Precipitation 0.00 in - - ()
Sea Level Pressure  
Sea Level Pressure 29.26 in    
Wind  
Wind Speed 5 mph ()    
Max Wind Speed 11 mph    
Max Gust Speed -    
Visibility 6.2 miles    
Events      
Averages and records for this station are not official NWS values.
T = Trace of Precipitation, MM = Missing Value Source: Averaged Metar Reports

Daily Weather History Graph

Daily Weather History Graph

Search for Another Location

Airport or City:

Trip Planner

Search our weather history database for the weather conditions in past years. The results will help you decide how hot, cold, wet, or windy it might be!

Date:

Astronomy

Jan. 01, 2018 Rise Set
Actual Time 11:24 AM CET 12:29 PM CET
Civil Twilight 9:17 AM CET 2:36 PM CET
Nautical Twilight 7:46 AM CET 4:07 PM CET
Astronomical Twilight 6:33 AM CET 5:20 PM CET
Moon 12:56 PM CET (1/1) 9:29 AM CET (1/1)
Length of Visible Light 5h 18m
Length of Day
1h 04m
Waxing Gibbous, 99% of the Moon is Illuminated
Jan 1
Waxing Gibbous
Jan 2
Full
Jan 8
Last Quarter
Jan 17
New
Jan 24
First Quarter

Hourly Weather History & Observations

Time (CET) Temp. Windchill Dew Point Humidity Pressure Visibility Wind Dir Wind Speed Gust Speed Precip Events Conditions
12:00 AM 26 °F - 20 °F 69% 29.30 in - SSW 4.5 mph - -  
12:20 AM 24.8 °F 20.5 °F 17.6 °F 74% 29.27 in 6.2 mi South 3.5 mph - N/A   Overcast
12:50 AM 26.6 °F 20.0 °F 15.8 °F 64% 29.27 in 6.2 mi SSE 5.8 mph - N/A   Overcast
1:00 AM 26 °F - 17 °F 59% 29.29 in - South 4.5 mph - -  
1:20 AM 24.8 °F 17.9 °F 17.6 °F 74% 29.27 in 6.2 mi SSE 5.8 mph - N/A   Overcast
1:50 AM 24.8 °F 16.9 °F 15.8 °F 69% 29.27 in 6.2 mi SSE 6.9 mph - N/A   Overcast
2:20 AM 26.6 °F 19.1 °F 15.8 °F 64% 29.27 in 6.2 mi South 6.9 mph - N/A   Overcast
2:50 AM 24.8 °F 20.5 °F 14.0 °F 64% 29.27 in 6.2 mi Variable 3.5 mph - N/A   Scattered Clouds
3:00 AM 25 °F - 15 °F 53% 29.29 in - South 4.5 mph - -  
3:50 AM 24.8 °F 17.9 °F 15.8 °F 69% 29.24 in 6.2 mi SSW 5.8 mph - N/A   Mostly Cloudy
4:00 AM 24 °F - 16 °F 60% 29.27 in - SW 6.7 mph - -  
4:20 AM 23.0 °F 14.7 °F 14.0 °F 68% 29.27 in 6.2 mi SSW 6.9 mph - N/A   Scattered Clouds
5:00 AM 24 °F - 15 °F 58% 29.28 in - SSE 4.5 mph - -  
6:00 AM 18 °F - 11 °F 62% 29.28 in - SSW 4.5 mph - -  
6:20 AM 19.4 °F 12.8 °F 10.4 °F 68% 29.27 in 6.2 mi South 4.6 mph - N/A   Unknown
6:50 AM 19.4 °F 11.5 °F 10.4 °F 68% 29.27 in 6.2 mi SSE 5.8 mph - N/A   Unknown
7:00 AM 19 °F - 11 °F 58% 29.28 in - South 6.7 mph - -  
7:20 AM 19.4 °F 11.5 °F 10.4 °F 68% 29.27 in 6.2 mi South 5.8 mph - N/A   Unknown
7:50 AM 19.4 °F 11.5 °F 10.4 °F 68% 29.24 in 6.2 mi SW 5.8 mph - N/A   Unknown
8:00 AM 21 °F - 11 °F 53% 29.27 in - South 4.5 mph - -  
8:20 AM 19.4 °F 12.8 °F 10.4 °F 68% 29.27 in 6.2 mi South 4.6 mph - N/A   Unknown
8:50 AM 19.4 °F 12.8 °F 10.4 °F 68% 29.27 in 6.2 mi South 4.6 mph - N/A   Unknown
9:00 AM 20 °F - 13 °F 64% 29.28 in - SSW 8.9 mph - -  
9:20 AM 19.4 °F 12.8 °F 8.6 °F 63% 29.27 in 6.2 mi SSW 4.6 mph - N/A   Unknown
9:50 AM 15.8 °F 10.2 °F 8.6 °F 73% 29.27 in - SSE 3.5 mph - N/A   Clear
10:00 AM 17 °F - 9 °F 58% 29.28 in - SSE 4.5 mph - -  
10:50 AM 14.0 °F - 8.6 °F 79% 29.27 in 6.2 mi Variable 2.3 mph - N/A   Mostly Cloudy
11:00 AM 12 °F - 7 °F 70% 29.29 in - East 2.2 mph - -  
11:50 AM 15.8 °F 10.2 °F 10.4 °F 79% 29.27 in 6.2 mi Variable 3.5 mph - N/A   Mostly Cloudy
12:00 PM 15 °F - 11 °F 78% 29.28 in - ENE 2.2 mph - -  
12:50 PM 14.0 °F - 10.4 °F 86% 29.24 in 6.2 mi Calm Calm - N/A   Mostly Cloudy
1:00 PM 18 °F - 14 °F 76% 29.27 in - South 2.2 mph - -  
1:50 PM 23.0 °F - 17.6 °F 80% 29.24 in 6.2 mi Variable 2.3 mph - N/A   Overcast
2:00 PM 18 °F - 13 °F 73% 29.27 in - ENE 2.2 mph - -  
2:50 PM 17.6 °F - 12.2 °F 79% 29.24 in 6.2 mi Calm Calm - N/A   Overcast
3:00 PM 18 °F - 14 °F 78% 29.27 in - SW 4.5 mph - -  
3:50 PM 24.8 °F 17.9 °F 19.4 °F 80% 29.24 in 6.2 mi SSW 5.8 mph - N/A   Overcast
4:00 PM 26 °F - 20 °F 71% 29.26 in - South 4.5 mph - -  
4:50 PM 28.4 °F 24.6 °F 21.2 °F 74% 29.24 in 6.2 mi SE 3.5 mph - N/A   Mostly Cloudy
5:00 PM 28 °F - 21 °F 64% 29.26 in - SSE 4.5 mph - -  
5:50 PM 28.4 °F 23.3 °F 19.4 °F 69% 29.24 in - South 4.6 mph - N/A   Clear
6:00 PM 27 °F - 20 °F 66% 29.25 in - SSE 11.2 mph - -  
7:00 PM 27 °F - 20 °F 64% 29.26 in - SSE 8.9 mph - -  
7:50 PM 30.2 °F 22.6 °F 19.4 °F 64% 29.24 in 6.2 mi South 8.1 mph - N/A   Mostly Cloudy
8:00 PM 31 °F - 21 °F 54% 29.26 in - SE 11.2 mph - -  
9:06 PM 30.2 °F 23.4 °F 19.4 °F 64% 29.24 in 6.2 mi SE 6.9 mph - N/A   Mostly Cloudy
9:50 PM 30.2 °F 26.7 °F 19.4 °F 64% 29.24 in 6.2 mi Variable 3.5 mph - N/A   Mostly Cloudy
10:00 PM 30 °F - 20 °F 56% 29.26 in - South 4.5 mph - -  
10:50 PM 30.2 °F 22.6 °F 19.4 °F 64% 29.24 in - SSE 8.1 mph - N/A   Clear
11:00 PM 31 °F - 20 °F 52% 29.26 in - SE 11.2 mph - -  
11:50 PM 30.2 °F 23.4 °F 19.4 °F 64% 29.24 in 6.2 mi SSE 6.9 mph - N/A   Partly Cloudy